User: anonymous   Login
Location: Seattle
(47.6064°N, 122.3308°W)
Time: 03:25:21
(UTC-08:00)
Language:

Tiros 1 despin weight - Orbit

View from above orbital plane
View from above orbital plane
View from above satellite
View from above satellite

Ground track
Ground track

The orbit data is extracted from the following two-line orbital elements,

1   115U 60002D   20334.93033505 +.00000175 +00000-0 +47784-4 0  9992
2   115 048.1656 198.4814 0034756 258.3341 101.3670 14.83654934216380
Epoch (UTC): 29 November 2020 22:19:40
Eccentricity: 0.0034756
inclination: 48.1656°
perigee height: 593 km
apogee height: 642 km
right ascension of ascending node: 198.4814°
argument of perigee: 258.3341°
revolutions per day: 14.83654934
mean anomaly at epoch: 101.3670°
orbit number at epoch: 21638

The dashed part of the orbit path shows where the satellite is in the earth's shadow,  

DLR